星链-5959 (STARLINK-5959 )

导读

STARLINK-5959是美国SpaceX公司于2023年5月10日发射的星链卫星,星链是全球知名低轨宽带卫星互联网星座,旨在为全球基础设施匮乏地区提供高速、低延迟宽带接入服务。该卫星部署于近地轨道,是SpaceX星链组网计划的组成部分,助力推进星链星座全球覆盖与网络扩容,支撑偏远地区互联网接入等应用场景。

Basic Information
目录编号:
56454
目录名称:
STARLINK-5959
国际标识:
2023-064G
轨道中心:
EARTH
卫星名称:
星链-5959
卫星全名:
星链-5959 (STARLINK-5959 )
卫星状态:
在轨 (已飞行1214 天)
发射日期:
2023-05-10 UTC
国别 :
美国 (US)
星等 :
--
Orbit Information
数据来源 国际轨道数据 AOE轨道数据
星历时间 2026-09-05T04:33:08+0800
13小时前
查看轨道信息
2026-09-03T09:00:00+0800
2天前
查看轨道信息
半长轴 6950.184km 6950.16km
偏心率 0.0002905 0.0002966
轨道倾角 69.999° 70.001°
近地点辐角 267.059° 272.302°
升交点赤经 52.706° 57.280°
平近点角 93.024° 22.263°
近地点 570.027km 569.961km
远地点 574.067km 574.085km
周期 96.107分钟 96.106分钟
每日圈数 14.983331 14.983409
Detailed Information
固有亮度:
5
最大亮度:
2.5
卫星平台:
Starlink v1.5
覆盖范围:
全球
运营商:
太空探索技术公司
运营商所在国:
美国
制造商(研发单位):
太空探索技术公司
制造商所在国:
美国
使用方式:
暂无
Satellite Introduction
星链(Starlink)计划是由太空探索技术公司(SpaceX)提出的一个巨型低轨卫星互联网星座项目,计划在2019年至2024年间在太空搭建由约1.2万颗卫星组成的“星链”网络,其中1584颗将部署在地球上空550千米处的近地轨道,并从2020年开始工作。该卫星仍在工作。
2D Orbit Map
3D Orbit Map
Orbit Altitude Analysis Chart
Orbit Inclination Analysis Chart
Orbit Comprehensive Analysis Chart
View Comprehensive Chart